Kelso, WA

12:51 AM PST on January 22, 2017 (GMT -0800)
Kelso-Longview

Weather History for KKLS - December, 2013

Change the Weather History Date:

Wednesday, December 11, 2013

  Actual Average Record
Temperature  
Mean Temperature 32 °F -  
Max Temperature 35 °F 44 °F 60 °F (2014)
Min Temperature 30 °F 36 °F 24 °F (2005)
Degree Days  
Heating Degree Days 32    
Moisture  
Dew Point 29 °F    
Average Humidity 88    
Maximum Humidity 93    
Minimum Humidity 81    
Precipitation  
Precipitation 0.00 in - - ()
Sea Level Pressure  
Sea Level Pressure 30.34 in    
Wind  
Wind Speed 3 mph (SSE)    
Max Wind Speed 10 mph    
Max Gust Speed -    
Averages and records for this station are not official NWS values.
T = Trace of Precipitation, MM = Missing Value Source: NWS Daily Summary

Daily Weather History Graph

Daily Weather History Graph

Search for Another Location

Airport or City:

Trip Planner

Search our weather history database for the weather conditions in past years. The results will help you decide how hot, cold, wet, or windy it might be!

Date:

Astronomy

Dec. 11, 2013 Rise Set
Actual Time 7:44 AM PST 4:25 PM PST
Civil Twilight 7:09 AM PST 5:00 PM PST
Nautical Twilight 6:31 AM PST 5:38 PM PST
Astronomical Twilight 5:55 AM PST 6:14 PM PST
Moon 1:16 PM PST (12/11) 1:56 AM PST (12/11)
Length of Visible Light 9h 50m
Length of Day
8h 41m
Waxing Gibbous, 72% of the Moon is Illuminated
Dec 11
Waxing Gibbous
Dec 17
Full
Dec 25
Last Quarter
Jan 1
New
Jan 7
First Quarter

Hourly Weather History & Observations

Time (PST) Temp. Windchill Dew Point Humidity Pressure Visibility Wind Dir Wind Speed Gust Speed Precip Events Conditions
12:15 AM 32.0 °F - 30.2 °F 93% 30.44 in - Calm Calm - N/A   Overcast
12:35 AM 32.0 °F - 28.4 °F 87% 30.44 in - Calm Calm - N/A   Overcast
12:55 AM 32.0 °F - 30.2 °F 93% 30.43 in - Calm Calm - N/A   Overcast
1:15 AM 32.0 °F - 30.2 °F 93% 30.43 in - Calm Calm - N/A   Overcast
1:35 AM 32.0 °F - 30.2 °F 93% 30.43 in - Calm Calm - N/A   Overcast
1:55 AM 32.0 °F - 30.2 °F 93% 30.43 in - Calm Calm - N/A   Overcast
2:15 AM 32.0 °F 28.7 °F 30.2 °F 93% 30.43 in - ESE 3.5 mph - N/A   Overcast
2:35 AM 32.0 °F 28.7 °F 30.2 °F 93% 30.43 in - East 3.5 mph - N/A   Overcast
2:55 AM 32.0 °F - 30.2 °F 93% 30.42 in - Calm Calm - N/A   Overcast
3:15 AM 32.0 °F - 30.2 °F 93% 30.42 in - Calm Calm - N/A   Overcast
3:35 AM 32.0 °F 27.5 °F 30.2 °F 93% 30.40 in - SE 4.6 mph - N/A   Overcast
3:55 AM 32.0 °F 28.7 °F 28.4 °F 87% 30.40 in - SSE 3.5 mph - N/A   Overcast
4:15 AM 32.0 °F 28.7 °F 28.4 °F 87% 30.40 in - SE 3.5 mph - N/A   Overcast
4:35 AM 32.0 °F - 28.4 °F 87% 30.39 in - Calm Calm - N/A   Overcast
4:55 AM 30.2 °F 25.4 °F 28.4 °F 93% 30.38 in - SSE 4.6 mph - N/A   Overcast
5:15 AM 30.2 °F 26.7 °F 28.4 °F 93% 30.38 in - SE 3.5 mph - N/A   Overcast
5:35 AM 32.0 °F - 28.4 °F 87% 30.38 in - Calm Calm - N/A   Overcast
5:55 AM 32.0 °F 28.7 °F 28.4 °F 87% 30.38 in - SE 3.5 mph - N/A   Overcast
6:15 AM 32.0 °F - 28.4 °F 87% 30.39 in - Calm Calm - N/A   Overcast
6:35 AM 32.0 °F 28.7 °F 28.4 °F 87% 30.39 in - SE 3.5 mph - N/A   Overcast
6:55 AM 32.0 °F 28.7 °F 28.4 °F 87% 30.38 in - SSE 3.5 mph - N/A   Overcast
7:15 AM 32.0 °F 28.7 °F 28.4 °F 87% 30.38 in - SSE 3.5 mph - N/A   Overcast
7:35 AM 32.0 °F 28.7 °F 28.4 °F 87% 30.38 in - SSE 3.5 mph - N/A   Overcast
7:55 AM 32.0 °F - 28.4 °F 87% 30.37 in - Calm Calm - N/A   Overcast
8:15 AM 32.0 °F 27.5 °F 28.4 °F 87% 30.38 in - SSE 4.6 mph - N/A   Overcast
8:35 AM 32.0 °F 26.4 °F 28.4 °F 87% 30.38 in - SSE 5.8 mph - N/A   Overcast
8:55 AM 32.0 °F 26.4 °F 28.4 °F 87% 30.39 in - South 5.8 mph - N/A   Overcast
9:15 AM 32.0 °F 28.7 °F 28.4 °F 87% 30.39 in - SSE 3.5 mph - N/A   Overcast
9:35 AM 32.0 °F 27.5 °F 28.4 °F 87% 30.40 in - SSE 4.6 mph - N/A   Overcast
9:55 AM 30.2 °F 26.7 °F 28.4 °F 93% 30.40 in - SSE 3.5 mph - N/A   Overcast
10:15 AM 32.0 °F 27.5 °F 28.4 °F 87% 30.40 in - South 4.6 mph - N/A   Overcast
10:35 AM 32.0 °F 27.5 °F 28.4 °F 87% 30.40 in - South 4.6 mph - N/A   Overcast
10:55 AM 32.0 °F 27.5 °F 28.4 °F 87% 30.40 in - SSW 4.6 mph - N/A   Overcast
11:15 AM 32.0 °F 28.7 °F 28.4 °F 87% 30.38 in - South 3.5 mph - N/A   Overcast
11:35 AM 32.0 °F 26.4 °F 28.4 °F 87% 30.37 in - South 5.8 mph - N/A   Overcast
11:55 AM 32.0 °F 26.4 °F 28.4 °F 87% 30.36 in - South 5.8 mph - N/A   Overcast
12:15 PM 32.0 °F 24.8 °F 28.4 °F 87% 30.35 in - SSE 8.1 mph - N/A   Overcast
12:35 PM 32.0 °F 25.6 °F 28.4 °F 87% 30.34 in - SSE 6.9 mph - N/A   Overcast
12:55 PM 33.8 °F 27.0 °F 28.4 °F 81% 30.34 in - SSE 8.1 mph - N/A   Overcast
1:15 PM 33.8 °F 25.8 °F 28.4 °F 81% 30.33 in - SE 10.4 mph - N/A   Overcast
1:35 PM 33.8 °F 26.4 °F 28.4 °F 81% 30.33 in - SSE 9.2 mph - N/A   Overcast
1:55 PM 33.8 °F 27.7 °F 28.4 °F 81% 30.32 in - SSE 6.9 mph - N/A   Mostly Cloudy
2:15 PM 33.8 °F 27.7 °F 28.4 °F 81% 30.31 in - SSE 6.9 mph - N/A   Partly Cloudy
2:35 PM 35.6 °F 30.7 °F 30.2 °F 81% 30.31 in - SSE 5.8 mph - N/A   Partly Cloudy
2:55 PM 35.6 °F 29.9 °F 30.2 °F 81% 30.31 in - South 6.9 mph - N/A   Partly Cloudy
3:15 PM 33.8 °F 28.6 °F 28.4 °F 81% 30.30 in - SSE 5.8 mph - N/A   Scattered Clouds
3:35 PM 33.8 °F 30.8 °F 28.4 °F 81% 30.29 in - South 3.5 mph - N/A   Overcast
3:55 PM 33.8 °F 30.8 °F 30.2 °F 87% 30.30 in - SSE 3.5 mph - N/A   Overcast
4:15 PM 33.8 °F 28.6 °F 30.2 °F 87% 30.29 in - SE 5.8 mph - N/A   Overcast
4:35 PM 33.8 °F - 28.4 °F 81% 30.29 in - Calm Calm - N/A   Mostly Cloudy
4:55 PM 32.0 °F 27.5 °F 28.4 °F 87% 30.28 in - ESE 4.6 mph - N/A   Mostly Cloudy
5:15 PM 32.0 °F - 28.4 °F 87% 30.28 in - Calm Calm - N/A   Mostly Cloudy
5:35 PM 32.0 °F 27.5 °F 28.4 °F 87% 30.28 in - SSE 4.6 mph - N/A   Unknown
5:55 PM 33.8 °F 27.0 °F 28.4 °F 81% 30.28 in - SSE 8.1 mph - N/A   Clear
6:15 PM 32.0 °F 26.4 °F 28.4 °F 87% 30.26 in - SSE 5.8 mph - N/A   Unknown
6:35 PM 32.0 °F 25.6 °F 28.4 °F 87% 30.25 in - SSE 6.9 mph - N/A   Mostly Cloudy
6:55 PM 32.0 °F 28.7 °F 28.4 °F 87% 30.25 in - SSE 3.5 mph - N/A   Mostly Cloudy
7:15 PM 32.0 °F 26.4 °F 28.4 °F 87% 30.26 in - SSE 5.8 mph - N/A   Overcast
7:35 PM 32.0 °F 27.5 °F 28.4 °F 87% 30.26 in - SE 4.6 mph - N/A   Overcast
7:55 PM 32.0 °F 27.5 °F 28.4 °F 87% 30.25 in - SE 4.6 mph - N/A   Overcast
8:15 PM 30.2 °F 24.3 °F 28.4 °F 93% 30.25 in - SSE 5.8 mph - N/A   Overcast
8:35 PM 30.2 °F 25.4 °F 28.4 °F 93% 30.24 in - SSE 4.6 mph - N/A   Mostly Cloudy
8:55 PM 30.2 °F 25.4 °F 28.4 °F 93% 30.24 in - SSE 4.6 mph - N/A   Mostly Cloudy
9:15 PM 30.2 °F 25.4 °F 28.4 °F 93% 30.25 in - SSE 4.6 mph - N/A   Mostly Cloudy
9:35 PM 30.2 °F 25.4 °F 28.4 °F 93% 30.24 in - SE 4.6 mph - N/A   Unknown
9:55 PM 30.2 °F 24.3 °F 28.4 °F 93% 30.24 in - SE 5.8 mph - N/A   Unknown
10:15 PM 32.0 °F 27.5 °F 28.4 °F 87% 30.24 in - SE 4.6 mph - N/A   Unknown
10:35 PM 32.0 °F 27.5 °F 28.4 °F 87% 30.24 in - SSE 4.6 mph - N/A   Unknown
10:55 PM 30.2 °F 25.4 °F 28.4 °F 93% 30.24 in - SSE 4.6 mph - N/A   Unknown
11:15 PM 30.2 °F 25.4 °F 26.6 °F 86% 30.24 in - SE 4.6 mph - N/A   Unknown
11:35 PM 30.2 °F 24.3 °F 26.6 °F 86% 30.23 in - SSE 5.8 mph - N/A   Unknown
11:55 PM 30.2 °F 26.7 °F 26.6 °F 86% 30.23 in - SE 3.5 mph - N/A   Unknown